Date,TemperatureHighF,TemperatureAvgF,TemperatureLowF,DewpointHighF,DewpointAvgF,DewpointLowF,HumidityHigh,HumidityAvg,HumidityLow,PressureMaxIn,PressureMinIn,WindSpeedMaxMPH,WindSpeedAvgMPH,GustSpeedMaxMPH,PrecipitationSumIn
2013-1-1,53.4,40.8,31.3,30.6,27.5,24.4,81,61,37,27.40,27.26,9,1,9,0.00
2013-1-2,60.6,44.7,31.6,28.3,25.5,22.4,76,51,25,27.29,27.14,8,1,8,0.00
2013-1-3,59.4,45.4,33.3,31.2,26.8,23.3,70,49,34,27.34,27.20,14,2,14,0.00
2013-1-4,57.6,45.6,37.4,32.0,27.3,23.5,62,50,36,27.43,27.34,11,1,11,0.00
2013-1-5,61.3,45.8,32.7,31.9,25.0,14.4,71,47,16,27.49,27.37,8,1,8,0.00
2013-1-6,65.7,51.8,41.5,24.5,12.0,-12.5,42,27,4,27.37,27.14,14,4,14,0.00
2013-1-7,56.8,44.9,34.9,29.7,25.1,21.3,60,46,35,27.14,27.02,14,2,14,0.00
2013-1-8,59.0,45.3,34.0,31.5,26.9,22.1,68,50,34,27.29,27.11,8,0,8,0.00
2013-1-9,68.7,51.1,35.2,30.9,9.8,-12.5,56,29,4,27.40,27.23,13,2,14,0.00
2013-1-10,66.4,52.3,42.8,33.1,15.8,-12.0,45,26,4,27.26,27.02,22,3,23,0.00
2013-1-11,53.8,40.6,32.7,34.2,27.5,12.0,85,63,30,27.29,27.08,23,4,23,0.11
2013-1-12,46.2,34.7,26.1,19.6,13.0,-5.5,59,43,13,27.29,27.17,11,1,11,0.03
2013-1-13,48.2,34.6,24.4,17.8,6.0,-13.1,53,36,8,27.29,27.17,10,1,10,0.00
2013-1-14,44.8,32.6,22.6,15.8,0.3,-15.6,54,30,9,27.37,27.20,15,2,15,0.00
2013-1-15,45.7,29.5,19.9,10.9,-1.8,-15.1,47,29,9,27.49,27.37,11,1,11,0.00
2013-1-16,60.1,41.7,25.3,12.4,-1.5,-12.1,42,22,6,27.52,27.37,8,1,8,0.00
2013-1-17,68.4,51.8,34.3,17.6,-1.4,-12.5,37,16,4,27.43,27.32,14,3,14,0.00
2013-1-18,74.1,55.4,42.3,19.3,0.4,-20.0,31,15,2,27.40,27.29,15,3,15,0.00
2013-1-19,73.6,54.4,37.4,26.5,6.7,-20.0,40,22,2,27.40,27.32,8,1,8,0.00
2013-1-20,75.2,56.2,40.6,34.3,22.3,0.3,42,29,7,27.34,27.23,9,1,9,0.00
2013-1-21,77.4,58.6,43.3,37.0,29.5,24.4,50,35,20,27.32,27.20,10,1,10,0.00
2013-1-22,78.8,59.9,43.3,40.0,24.0,-19.7,54,32,2,27.37,27.29,8,0,8,0.00
2013-1-23,79.9,61.8,45.3,34.6,19.7,-17.7,42,26,2,27.43,27.32,9,1,9,0.00
2013-1-24,64.4,59.7,56.5,50.8,40.4,28.9,77,51,32,27.46,27.37,8,0,8,0.02
2013-1-25,75.4,63.9,52.3,49.3,45.9,43.8,74,54,35,27.40,27.20,7,0,7,0.00
2013-1-26,67.8,60.9,54.5,60.3,52.2,45.2,93,75,48,27.23,27.14,15,2,15,0.59
2013-1-27,67.5,58.7,50.5,54.7,48.6,43.4,95,72,45,27.23,27.14,10,2,10,0.01
2013-1-28,58.1,51.1,43.5,49.0,40.8,29.1,86,68,49,27.20,27.14,19,4,23,0.02
2013-1-29,51.8,44.5,37.9,34.2,25.7,19.0,75,50,28,27.37,27.20,24,5,24,0.00
2013-1-30,57.6,44.5,32.5,29.1,22.0,-1.1,72,45,9,27.52,27.37,10,1,12,0.00
2013-1-31,62.6,47.1,34.3,33.1,28.2,22.6,66,49,29,27.43,27.29,9,1,9,0.00
2013-2-1,70.5,52.2,36.0,33.1,22.3,-14.5,62,39,3,27.40,27.32,8,1,9,0.00
2013-2-2,75.0,55.0,38.1,35.8,20.3,-20.0,60,37,2,27.43,27.32,8,1,10,0.00
2013-2-3,70.3,59.7,51.3,39.0,33.7,29.1,48,38,26,27.34,27.17,9,1,11,0.00
2013-2-4,70.7,57.4,46.6,41.1,37.4,34.5,66,49,33,27.26,27.17,11,1,11,0.00
2013-2-5,72.7,57.3,43.0,43.0,39.0,35.3,75,53,32,27.26,27.14,10,1,12,0.00
2013-2-6,70.0,57.0,45.1,43.1,37.6,32.8,74,50,32,27.26,27.14,12,2,12,0.00
2013-2-7,69.8,55.3,42.4,40.5,33.3,26.9,71,46,23,27.32,27.17,9,1,9,0.00
2013-2-8,69.3,57.5,45.7,33.7,15.7,-12.5,47,27,4,27.17,27.02,17,4,17,0.00
2013-2-9,53.2,46.3,37.4,39.4,28.9,23.0,86,53,34,27.23,27.02,16,3,16,0.11
2013-2-10,56.8,44.1,31.8,29.0,24.8,21.4,75,50,26,27.26,27.14,10,1,12,0.00
2013-2-11,53.8,39.9,32.7,35.7,28.7,19.7,88,66,39,27.34,27.17,15,2,15,0.21
2013-2-12,51.8,41.9,32.7,35.8,30.4,24.8,87,66,41,27.46,27.34,11,1,11,0.00
2013-2-13,59.2,44.8,31.8,30.5,25.4,-0.6,76,51,9,27.40,27.29,8,1,8,0.00
2013-2-14,64.2,44.1,33.8,32.2,26.7,19.6,70,53,18,27.37,27.26,11,1,11,0.00
2013-2-15,72.0,54.3,39.7,34.4,15.5,-14.5,63,32,3,27.46,27.34,11,1,11,0.00
2013-2-16,74.1,57.8,41.0,23.1,0.0,-20.0,39,15,2,27.46,27.26,13,2,13,0.00
2013-2-17,73.0,57.6,41.7,16.9,-6.6,-14.5,30,9,3,27.26,27.08,20,3,20,0.00
2013-2-18,70.2,55.3,39.2,23.6,2.8,-14.5,39,17,3,27.29,27.17,8,1,8,0.00
2013-2-19,71.1,57.0,43.7,27.6,1.8,-14.5,36,15,3,27.20,26.96,19,4,21,0.00
2013-2-20,53.6,42.7,34.7,36.9,31.8,26.7,87,68,36,27.17,26.96,22,3,22,0.26
2013-2-21,54.5,42.9,33.6,36.2,32.2,29.8,89,68,46,27.26,27.14,10,2,12,0.41
2013-2-22,56.8,46.2,37.2,40.1,32.5,25.1,86,61,41,27.37,27.23,13,2,13,0.00
2013-2-23,64.2,48.3,34.5,32.6,27.2,-8.9,77,50,6,27.37,27.08,10,2,10,0.00
2013-2-24,50.9,43.8,34.7,31.8,14.5,-12.1,74,39,8,27.32,27.05,25,5,25,0.00
2013-2-25,58.1,43.5,30.0,24.3,13.0,-10.8,55,35,6,27.43,27.26,12,1,12,0.00
2013-2-26,62.8,46.9,30.9,27.0,9.9,-10.8,62,32,5,27.32,27.20,14,2,14,0.00
2013-2-27,63.3,48.2,32.2,23.2,3.5,-11.7,55,24,5,27.43,27.32,13,2,13,0.00
2013-2-28,66.9,49.6,31.8,22.4,3.4,-12.5,49,22,4,27.55,27.43,13,2,13,0.00
2013-3-1,72.1,53.6,36.3,25.1,6.2,-14.5,43,23,3,27.70,27.43,8,1,9,0.00
2013-3-2,81.9,61.0,40.6,32.0,7.5,-20.0,45,22,2,27.61,27.34,9,2,9,0.00
2013-3-3,80.8,62.7,44.8,33.9,4.2,-20.0,42,19,2,27.46,27.20,15,2,15,0.00
2013-3-4,72.5,63.8,51.1,29.7,3.4,-14.5,40,13,3,27.34,27.17,20,4,22,0.00
2013-3-5,79.7,61.9,45.5,36.6,13.8,-20.0,48,26,2,27.55,27.26,15,2,16,0.00
2013-3-6,80.4,65.8,53.2,38.5,12.2,-20.0,40,22,2,27.40,27.17,11,1,11,0.00
2013-3-7,79.7,63.1,47.1,36.4,10.7,-20.0,47,22,2,27.37,27.17,16,2,17,0.00
2013-3-8,68.9,58.6,46.4,47.7,34.6,24.0,60,41,25,27.32,27.08,27,6,28,0.02
2013-3-9,53.2,48.9,44.2,39.6,34.3,31.2,70,57,47,27.85,27.32,13,2,13,0.00
2013-3-10,65.3,53.6,42.3,39.8,35.2,28.3,80,53,28,28.35,27.40,15,2,15,0.00
2013-3-11,72.7,56.1,40.5,35.8,24.6,-13.9,62,38,3,28.38,27.32,11,2,11,0.00
2013-3-12,80.6,61.1,41.9,38.6,21.9,-19.0,54,33,2,28.05,27.29,10,1,10,0.00
2013-3-13,87.6,67.7,47.1,34.8,10.8,-20.0,48,22,2,27.94,27.29,10,2,10,0.00
2013-3-14,91.2,70.9,50.4,27.5,1.3,-20.0,36,13,2,27.61,27.26,10,1,10,0.00
2013-3-15,92.5,66.6,54.0,11.9,-9.1,-20.0,15,5,2,27.55,27.17,17,2,17,0.00
2013-3-16,88.9,66.2,50.7,26.6,0.7,-20.0,30,11,2,27.37,27.05,19,2,20,0.00
2013-3-17,82.6,67.5,51.6,-7.0,-12.4,-20.0,8,4,2,27.43,27.11,25,4,25,0.00
2013-3-18,82.8,66.7,50.2,35.2,0.7,-20.0,36,12,2,27.64,27.20,17,2,17,0.00
2013-3-19,79.5,66.2,52.9,36.5,8.1,-20.0,35,16,2,27.55,27.26,15,2,17,0.00
2013-3-20,81.9,67.3,51.6,33.2,6.0,-20.0,37,16,2,27.70,27.20,11,2,12,0.00
2013-3-21,78.1,66.7,54.1,36.1,22.7,-0.3,36,22,5,27.55,27.08,13,2,13,0.00
2013-3-22,80.4,66.7,54.5,34.4,18.4,-20.0,36,21,2,27.40,26.99,17,2,17,0.00
2013-3-23,73.8,62.9,51.4,32.2,6.1,-20.0,35,16,2,27.70,27.17,17,4,20,0.00
2013-3-24,76.1,60.3,42.4,-7.1,-12.1,-20.0,10,5,2,28.91,27.26,17,2,17,0.00
2013-3-25,79.9,63.5,44.2,-7.1,-12.6,-20.0,9,5,2,29.03,27.26,11,2,11,0.00
2013-3-26,87.6,69.7,53.6,-7.5,-11.5,-20.0,7,4,2,28.32,27.14,15,3,15,0.00
2013-3-27,87.1,69.5,52.0,-7.0,-12.1,-20.0,7,4,2,28.14,27.20,18,3,18,0.00
2013-3-28,84.2,66.4,53.8,10.8,-9.3,-20.0,15,5,2,27.91,27.26,11,1,12,0.00
2013-3-29,86.0,70.6,54.5,19.1,-9.4,-20.0,19,5,2,27.73,27.26,15,2,15,0.00
2013-3-30,85.1,70.1,57.7,-7.0,-12.3,-20.0,6,4,2,27.94,27.26,12,2,12,0.00
2013-3-31,85.5,69.2,50.9,30.8,-1.8,-20.0,36,10,2,27.96,27.20,12,2,14,0.00
2013-4-1,82.8,68.5,52.0,36.1,0.5,-20.0,32,11,2,28.53,27.20,14,2,14,0.00
2013-4-2,77.4,64.5,48.7,39.7,-7.1,-20.0,33,8,2,28.11,27.23,15,2,15,0.00
2013-4-3,82.6,66.6,48.2,24.7,-6.1,-20.0,28,8,2,29.15,27.29,13,2,13,0.00
2013-4-4,90.9,71.8,51.8,28.5,-3.6,-20.0,28,8,2,28.88,27.20,12,1,15,0.00
2013-4-5,87.1,72.9,56.8,-7.0,-12.5,-20.0,6,3,2,27.73,27.17,17,2,17,0.00
2013-4-6,85.5,71.5,56.7,34.5,5.2,-20.0,32,13,2,27.85,27.14,12,2,12,0.00
2013-4-7,86.0,71.6,55.2,40.0,7.5,-20.0,38,16,2,27.61,27.05,14,2,15,0.00
2013-4-8,84.6,70.3,48.4,44.0,18.7,-17.0,84,20,2,28.05,26.75,26,8,29,0.02
2013-4-9,62.6,56.0,48.0,49.7,39.4,31.8,85,57,35,30.53,27.79,18,4,22,0.08
2013-4-10,62.4,56.9,50.7,52.5,42.4,32.4,93,62,35,31.01,27.76,15,3,17,0.00
2013-4-11,68.7,57.6,51.1,53.9,47.6,35.5,92,73,31,31.01,27.34,11,1,13,0.00
2013-4-12,72.1,60.9,54.9,54.9,48.8,30.2,86,69,23,30.92,27.55,13,1,15,0.00
2013-4-13,75.4,63.3,55.2,52.7,42.6,-12.1,82,56,3,31.01,27.17,16,2,17,0.00
2013-4-14,76.1,67.6,59.5,49.8,44.6,35.6,69,46,24,30.68,27.17,18,4,18,0.00
2013-4-15,78.1,69.6,60.8,48.1,42.6,34.1,58,39,21,28.82,27.17,20,6,23,0.00
2013-4-16,77.2,69.7,62.4,47.4,41.3,35.6,52,37,24,28.88,27.14,22,6,22,0.00
2013-4-17,66.4,62.8,57.4,41.0,21.3,-12.5,46,26,4,31.01,27.49,22,5,22,0.00
2013-4-18,67.3,59.8,51.4,31.0,13.0,-12.5,41,22,4,31.01,29.23,16,2,16,0.00
2013-4-19,73.6,63.2,52.2,32.0,8.5,-20.0,37,18,2,31.01,28.64,13,2,13,0.00
2013-4-20,77.7,65.5,52.3,34.6,10.9,-20.0,40,21,2,31.01,29.06,15,2,17,0.00
2013-4-21,80.6,68.5,56.5,37.4,14.9,-19.9,37,21,2,31.01,30.92,13,2,13,0.00
2013-4-22,83.7,70.9,58.5,36.4,9.2,-20.0,35,17,2,31.01,25.07,15,2,17,0.00
2013-4-23,82.9,71.4,59.9,33.7,11.8,-20.0,31,16,2,17.72,17.72,17,2,17,0.00
2013-4-24,82.9,73.0,61.7,36.5,11.1,-20.0,33,15,2,17.72,17.72,13,3,13,0.00
2013-4-25,79.9,72.4,64.6,37.7,13.0,-20.0,33,16,2,17.72,17.72,22,4,23,0.00
2013-4-26,79.7,69.6,57.9,38.0,10.9,-20.0,34,17,2,17.72,17.72,13,2,13,0.00
2013-4-27,92.5,75.6,60.4,36.8,5.1,-20.0,31,13,2,17.72,17.72,11,2,11,0.00
2013-4-28,95.5,77.4,56.1,11.3,-10.0,-20.0,14,3,2,17.72,17.72,17,2,21,0.00
2013-4-29,97.3,78.7,56.8,-4.9,-10.6,-20.0,6,3,2,17.72,17.72,15,2,15,0.00
2013-4-30,97.3,80.1,61.3,-4.7,-10.8,-20.0,5,3,2,17.72,17.72,17,3,17,0.00
2013-5-1,92.7,76.5,57.9,-7.0,-11.6,-20.0,6,3,2,17.72,17.72,14,2,14,0.00
2013-5-2,91.4,76.9,62.2,-8.1,-12.4,-20.0,5,3,2,17.72,17.72,18,4,18,0.00
2013-5-3,89.8,74.7,59.7,-7.1,-12.1,-20.0,6,3,2,17.72,17.72,16,4,18,0.00
2013-5-4,95.0,78.7,61.2,-6.2,-11.4,-20.0,5,3,2,17.72,17.72,17,4,20,0.00
2013-5-5,92.8,79.3,64.9,43.7,-10.7,-20.0,46,4,2,17.72,17.72,28,5,28,0.01
2013-5-6,86.0,72.5,59.4,51.9,40.0,-4.7,68,35,3,17.72,17.72,16,3,16,0.01
2013-5-7,87.1,71.5,57.4,45.1,23.7,-20.0,40,25,2,17.72,17.72,17,4,17,0.00
2013-5-8,84.0,70.3,57.2,44.3,37.1,17.7,46,31,9,17.72,17.72,13,2,13,0.00
2013-5-9,85.5,72.5,58.5,45.4,18.1,-19.9,46,22,2,17.72,17.72,13,2,14,0.00
2013-5-10,88.2,73.3,58.3,44.2,25.7,-16.1,37,23,2,17.72,17.72,20,2,24,0.00
2013-5-11,88.7,76.1,60.1,43.1,16.8,-19.7,36,17,2,17.72,17.72,19,4,26,0.00
2013-5-12,92.3,79.6,64.6,40.4,9.6,-19.5,33,12,2,17.72,17.72,17,4,17,0.00
2013-5-13,97.9,82.7,68.0,32.2,-8.6,-20.0,22,4,2,17.72,17.72,17,4,17,0.00
2013-5-14,97.3,84.2,71.1,32.3,-6.4,-20.0,22,4,2,17.72,17.72,13,2,13,0.00
2013-5-15,99.5,83.8,67.3,31.7,-2.0,-19.7,23,5,2,17.72,17.72,16,4,17,0.00
2013-5-16,100.4,83.3,64.4,4.2,-9.9,-20.0,7,3,2,17.72,17.72,17,3,17,0.00
2013-5-17,97.2,74.0,63.5,20.8,-10.2,-20.0,15,4,2,17.72,17.72,16,1,16,0.00
2013-5-18,93.0,75.5,63.1,32.9,-8.7,-18.8,23,4,2,17.72,17.72,18,2,19,0.00
2013-5-19,92.3,79.0,62.4,42.8,12.4,-17.5,35,15,2,17.72,17.72,15,2,15,0.00
2013-5-20,92.3,78.7,61.7,39.0,6.9,-20.0,31,11,2,17.72,17.72,17,3,19,0.00
2013-5-21,96.4,79.6,58.8,-5.5,-10.6,-20.0,6,3,2,17.72,17.72,13,2,13,0.00
2013-5-22,101.7,83.1,61.9,-2.0,-9.7,-20.0,5,3,2,17.72,17.72,15,2,15,0.00
2013-5-23,100.4,83.5,64.8,14.8,-9.8,-19.6,12,3,2,17.72,17.72,17,3,17,0.00
2013-5-24,100.4,83.1,65.3,41.9,-0.6,-20.0,32,7,2,17.72,17.72,17,2,17,0.00
2013-5-25,100.6,83.4,64.4,31.1,-5.9,-20.0,22,4,2,17.72,17.72,15,3,21,0.00
2013-5-26,98.6,80.9,61.3,-4.1,-10.6,-20.0,5,3,2,17.72,17.72,14,2,15,0.00
2013-5-27,98.4,80.4,60.1,-4.2,-10.6,-20.0,6,3,2,17.72,17.72,15,2,15,0.00
2013-5-28,96.4,80.8,61.7,-5.4,-11.2,-20.0,5,3,2,17.72,17.72,15,3,17,0.00
2013-5-29,95.4,81.0,62.6,45.5,-2.2,-18.8,31,6,2,17.72,17.72,17,3,17,0.00
2013-5-30,98.4,84.5,68.2,54.0,27.4,-12.8,47,23,2,17.72,17.72,17,3,17,0.00
2013-5-31,100.6,85.1,69.6,58.4,38.3,-9.6,46,26,2,17.72,17.72,14,2,14,0.00
2013-6-1,105.6,88.5,66.9,44.2,14.0,-13.9,33,12,2,17.72,17.72,11,2,12,0.00
2013-6-2,107.8,90.4,70.5,41.6,9.6,-15.3,26,9,2,17.72,17.72,16,3,16,0.00
2013-6-3,105.6,89.1,72.3,31.5,-1.9,-18.3,22,4,2,17.72,17.72,15,3,15,0.00
2013-6-4,105.3,88.4,70.5,41.5,-0.4,-20.0,22,5,2,17.72,17.72,17,3,17,0.00
2013-6-5,103.3,85.7,66.9,30.0,-5.2,-20.0,22,4,2,17.72,17.72,15,2,15,0.00
2013-6-6,104.4,86.8,65.5,-0.5,-8.7,-20.0,4,2,2,17.72,17.72,12,2,14,0.00
2013-6-7,108.1,90.6,69.3,2.1,-7.9,-20.0,4,2,2,17.72,17.72,14,2,14,0.00
2013-6-8,104.9,90.4,72.1,0.0,-8.7,-20.0,3,2,2,17.72,17.72,17,3,17,0.00
2013-6-9,103.1,89.6,75.7,2.1,-9.4,-18.5,5,2,2,17.72,17.72,17,3,17,0.00
2013-6-10,106.3,90.3,70.3,0.9,-8.4,-20.0,3,2,2,17.72,17.72,13,2,15,0.00
2013-6-11,107.4,91.2,70.7,1.3,-8.1,-20.0,3,2,2,17.72,17.72,17,3,17,0.00
2013-6-12,106.9,92.1,71.8,1.3,-7.7,-20.0,3,2,2,17.72,17.72,15,4,15,0.00
2013-6-13,88.2,83.5,79.7,23.1,-7.0,-16.1,12,3,2,17.72,17.72,8,2,8,0.00
2013-7-2,111.7,95.4,75.6,0.0,0.0,0.0,0,0,100,27.26,27.08,31,4,31,0.00
2013-7-3,110.3,93.1,74.5,0.0,0.0,0.0,0,0,100,27.17,26.96,15,4,15,0.00
2013-7-4,117.7,95.5,79.3,0.0,0.0,0.0,0,0,100,27.11,26.96,15,3,15,0.00
2013-7-5,108.1,86.0,72.7,0.0,0.0,0.0,0,0,100,27.14,27.02,25,3,25,0.09
2013-7-6,111.4,90.4,72.1,0.0,0.0,0.0,0,0,100,27.11,26.93,14,2,14,0.00
2013-7-7,111.2,92.0,76.3,0.0,0.0,0.0,0,0,100,27.11,26.99,19,2,20,0.00
2013-7-8,113.9,95.7,82.6,0.0,0.0,0.0,0,0,100,27.17,27.08,16,3,18,0.00
2013-7-9,104.4,90.1,77.7,0.0,0.0,0.0,0,0,100,27.29,27.11,21,5,21,0.04
2013-7-10,111.0,86.8,74.3,0.0,0.0,0.0,0,0,100,27.26,27.14,15,3,17,0.04
2013-7-11,108.3,81.3,72.1,0.0,0.0,0.0,0,0,100,27.23,27.11,15,2,15,0.08
2013-7-12,97.5,85.0,77.9,0.0,0.0,0.0,0,0,100,27.23,27.08,13,2,13,0.21
2013-7-13,85.1,85.1,85.1,0.0,0.0,0.0,0,0,100,27.23,27.08,14,3,14,0.00
2013-7-14,95.5,87.4,81.1,0.0,0.0,0.0,0,0,100,27.20,27.05,15,3,15,0.00
2013-7-15,86.0,84.7,79.2,0.0,0.0,0.0,0,0,100,27.14,26.96,24,3,24,0.09
2013-7-16,86.0,78.9,77.4,0.0,0.0,0.0,0,0,100,27.26,27.14,17,5,17,0.00
2013-7-17,79.7,79.7,79.7,0.0,0.0,0.0,0,0,100,27.26,27.14,18,3,18,0.05
2013-7-18,79.7,79.7,79.7,0.0,0.0,0.0,0,0,100,27.23,27.08,15,4,15,0.02
2013-7-19,79.7,79.7,79.7,0.0,0.0,0.0,0,0,100,27.20,27.05,12,2,12,0.07
2013-7-20,79.7,79.7,79.7,0.0,0.0,0.0,0,0,100,27.17,27.02,23,2,27,0.63
2013-7-21,79.7,79.7,79.7,0.0,0.0,0.0,0,0,100,27.20,27.11,15,2,15,0.00
2013-7-22,89.6,82.2,79.7,0.0,0.0,0.0,0,0,100,27.23,27.14,15,3,18,0.00
2013-7-23,91.0,88.0,84.7,0.0,0.0,0.0,0,0,100,27.26,27.11,15,3,15,0.00
2013-7-24,90.0,88.0,86.4,0.0,0.0,0.0,0,0,100,27.20,27.11,13,2,15,0.05
2013-7-25,88.7,87.5,86.0,0.0,0.0,0.0,0,0,100,27.26,27.17,12,1,12,0.02
2013-7-26,90.1,85.6,76.6,0.0,0.0,0.0,0,0,100,27.34,27.26,26,2,28,0.00
2013-7-27,79.7,77.6,75.6,0.0,0.0,0.0,0,0,100,27.29,27.11,15,2,15,0.00
2013-7-28,102.0,84.3,77.0,60.7,23.4,0.0,38,11,21,27.14,27.05,14,2,14,0.00
2013-7-29,101.3,88.2,73.4,56.1,49.2,44.9,42,27,17,27.26,27.14,11,2,15,0.02
2013-7-30,103.1,90.1,76.1,59.1,53.2,49.3,43,30,18,27.34,27.20,12,2,13,0.00
2013-7-31,106.3,90.5,81.1,60.4,55.7,53.1,42,32,18,27.29,27.17,12,2,12,0.00
2013-8-1,94.1,86.9,82.4,61.8,58.2,53.2,43,38,31,27.23,27.14,18,4,22,0.00
2013-8-2,97.7,84.7,77.9,68.2,61.7,55.1,63,47,35,27.20,27.14,12,2,12,0.00
2013-8-3,102.0,87.8,72.9,62.4,59.3,55.0,65,41,24,27.26,27.11,17,2,17,0.00
2013-8-4,95.4,86.6,79.5,62.4,57.8,53.9,46,38,29,27.26,27.14,10,1,11,0.00
2013-8-5,95.9,82.4,72.1,68.8,60.4,54.0,88,51,28,27.29,27.14,19,5,23,0.07
2013-8-6,85.3,77.0,71.8,69.1,65.6,57.4,89,69,47,27.26,27.20,15,2,15,0.01
2013-8-7,95.9,82.5,70.2,66.5,59.6,50.4,84,51,27,27.29,27.14,13,2,15,0.00
2013-8-8,101.3,86.2,70.5,58.0,38.9,-10.7,57,27,2,27.20,27.08,11,2,11,0.00
2013-8-9,105.4,87.5,68.9,50.5,25.8,-6.4,42,19,2,27.20,27.08,14,2,14,0.00
2013-8-10,102.2,88.8,73.9,53.5,22.6,-8.6,33,15,2,27.26,27.11,11,2,13,0.00
2013-8-11,104.2,88.3,73.9,62.0,54.9,38.1,48,33,22,27.23,27.08,17,3,17,0.00
2013-8-12,104.0,90.2,73.6,63.1,44.3,-12.2,63,30,2,27.17,27.05,19,2,19,0.00
2013-8-13,104.4,88.9,72.7,50.7,15.3,-12.6,36,13,2,27.23,27.08,15,2,15,0.00
2013-8-14,105.8,86.6,78.1,61.6,43.9,10.1,45,25,6,27.20,27.08,20,3,23,0.00
2013-8-15,105.3,91.2,78.4,62.1,56.4,47.7,49,33,17,27.23,27.08,13,2,14,0.00
2013-8-16,109.8,92.9,79.9,62.7,53.6,-0.5,44,30,2,27.23,27.08,24,3,25,0.00
2013-8-17,109.6,92.0,77.4,62.7,55.4,40.6,56,32,12,27.23,27.05,21,2,23,0.00
2013-8-18,107.2,90.8,81.0,60.2,53.3,17.8,40,29,10,27.23,27.14,15,4,17,0.00
2013-8-19,104.4,90.4,79.0,59.1,53.8,46.5,46,31,16,27.23,27.08,11,2,14,0.00
2013-8-20,104.0,86.8,79.7,68.4,58.5,51.8,65,40,24,27.23,27.08,15,4,15,0.02
2013-8-21,96.8,85.0,77.4,62.0,58.7,53.6,58,42,28,27.23,27.11,12,3,13,0.00
2013-8-22,103.1,84.1,73.8,67.4,61.5,57.3,79,50,24,27.23,27.08,28,2,30,0.35
2013-8-23,99.7,83.1,70.5,66.5,61.1,54.4,82,52,27,27.20,27.02,15,2,15,0.01
2013-8-24,92.8,78.2,70.9,67.9,64.2,60.1,89,65,35,27.20,27.14,13,4,13,0.02
2013-8-25,89.8,78.6,74.3,73.2,68.5,62.0,94,73,41,27.26,27.14,20,1,20,0.14
2013-8-26,100.6,81.2,73.2,74.7,69.6,59.9,96,73,27,27.23,27.08,17,1,17,0.08
2013-8-27,100.9,86.1,70.2,71.1,62.1,52.8,92,52,23,27.14,27.02,16,3,16,0.00
2013-8-28,98.8,85.8,78.3,67.8,61.2,56.2,70,45,30,27.23,27.08,17,3,17,0.00
2013-8-29,89.6,80.2,75.6,72.7,67.9,64.0,88,67,46,27.32,27.20,12,2,12,0.01
2013-8-30,91.6,80.9,74.3,72.6,68.0,60.9,91,68,39,27.32,27.20,8,1,9,0.01
2013-8-31,96.3,84.6,72.0,68.2,63.8,58.2,80,52,31,27.26,27.11,17,3,17,0.00
2013-9-1,99.3,87.1,74.1,65.2,61.3,55.1,71,45,29,27.20,27.05,13,2,13,0.00
2013-9-2,97.0,85.2,76.5,64.5,59.8,54.7,64,44,27,27.26,27.05,11,2,13,0.00
2013-9-3,102.6,80.9,70.0,74.4,62.6,55.8,93,57,26,27.20,27.11,26,2,26,0.47
2013-9-4,99.9,84.3,70.3,67.2,59.4,52.0,80,47,25,27.23,27.11,14,1,14,0.00
2013-9-5,102.6,88.3,72.5,58.4,52.1,45.8,50,31,17,27.20,27.11,19,3,19,0.00
2013-9-6,100.0,85.8,74.8,60.6,55.4,50.3,54,36,25,27.23,27.08,16,3,22,0.00
2013-9-7,89.1,80.3,74.3,68.0,62.7,57.5,74,56,40,27.26,27.11,11,4,11,0.00
2013-9-8,86.5,76.6,72.1,70.1,66.5,61.8,91,72,45,27.17,27.05,11,3,11,0.07
2013-9-9,82.4,74.4,68.2,72.6,68.4,64.8,95,82,61,27.11,26.99,15,2,17,0.93
2013-9-10,86.2,75.5,66.2,67.9,62.6,54.9,96,68,39,27.17,27.08,17,2,17,0.17
2013-9-11,90.5,75.5,66.9,66.9,61.3,51.7,90,66,31,27.23,27.11,15,1,15,0.00
2013-9-12,94.3,81.1,68.5,62.8,58.5,51.3,77,49,29,27.17,27.02,13,2,13,0.00
2013-9-13,97.3,84.5,72.5,66.8,59.8,46.3,78,47,19,27.08,26.90,12,2,12,0.00
2013-9-14,99.3,86.3,75.6,64.4,58.4,51.8,65,41,26,27.02,26.93,14,3,14,0.00
2013-9-15,99.3,86.1,73.8,62.2,57.6,52.8,63,40,24,27.08,26.99,18,2,18,0.00
2013-9-16,99.7,88.8,77.5,62.7,57.4,53.5,50,36,22,27.11,27.02,16,4,16,0.00
2013-9-17,100.4,89.5,79.5,61.3,56.3,51.6,46,34,21,27.11,26.93,14,3,17,0.00
2013-9-18,99.0,87.2,74.3,60.6,42.5,-4.6,56,26,2,27.05,26.93,11,2,11,0.00
2013-9-19,98.1,84.5,69.4,55.7,47.0,38.2,47,29,17,27.08,26.96,12,2,12,0.00
2013-9-20,99.9,83.7,69.6,57.7,50.0,38.2,44,32,20,27.14,27.02,17,3,17,0.00
2013-9-21,97.5,84.9,73.8,61.3,55.7,52.2,53,38,26,27.14,26.96,13,4,15,0.00
2013-9-22,93.9,82.5,71.2,64.0,54.1,38.2,56,39,27,27.02,26.90,18,5,20,0.00
2013-9-23,90.0,76.2,60.6,48.1,23.2,-16.9,44,22,2,27.17,27.02,8,1,9,0.00
2013-9-24,95.7,79.3,61.3,46.2,12.6,-20.0,38,16,2,27.23,27.05,11,1,11,0.00
2013-9-25,72.5,71.4,71.1,-12.8,-13.5,-13.8,3,3,3,27.11,27.11,5,1,5,0.00
2013-9-29,84.2,75.3,67.8,34.1,28.5,10.4,28,19,7,27.23,27.20,8,1,8,0.00
2013-9-30,91.0,74.5,58.8,45.3,15.7,-20.0,39,18,2,27.23,27.11,10,1,11,0.00
2013-10-1,90.9,75.3,58.8,38.3,15.4,-16.1,34,17,2,27.23,27.11,14,1,14,0.00
2013-10-2,89.8,75.5,60.3,51.4,39.9,30.3,42,29,13,27.20,27.08,10,1,10,0.00
2013-10-3,92.1,76.3,62.2,53.4,33.8,-14.7,45,27,2,27.14,26.96,14,2,16,0.00
2013-10-4,75.0,69.8,66.7,43.3,29.8,-14.5,39,28,3,27.20,27.08,10,2,10,0.00
2013-10-5,82.6,69.0,56.8,24.1,-8.5,-20.0,25,6,2,27.32,27.20,14,2,14,0.00
2013-10-6,89.1,70.9,52.0,19.5,-10.7,-20.0,19,4,2,27.32,27.20,9,1,11,0.00
2013-10-7,94.1,77.0,60.4,-6.8,-11.4,-20.0,6,3,2,27.26,27.11,17,3,17,0.00
2013-10-8,89.4,74.6,60.3,35.0,-1.3,-20.0,27,8,2,27.17,27.02,17,2,17,0.00
2013-10-9,90.9,75.3,59.9,42.7,22.5,-12.5,34,19,2,27.05,26.93,20,6,25,0.00
2013-10-10,71.8,66.7,57.2,48.1,42.4,38.0,58,42,32,27.17,26.99,16,5,17,0.00
2013-10-11,76.6,63.4,49.8,45.5,39.8,32.5,62,43,31,27.20,27.11,10,1,10,0.00
2013-10-12,85.6,68.1,51.4,44.8,30.1,-13.6,48,30,2,27.17,27.08,12,1,12,0.00
2013-10-13,88.0,72.1,57.2,49.0,38.3,16.6,46,31,8,27.20,27.11,17,2,21,0.00
2013-10-14,81.1,68.9,55.9,46.2,38.7,32.6,53,34,21,27.26,27.14,13,1,13,0.00
2013-10-15,82.2,68.2,54.1,47.1,23.7,-19.9,45,25,2,27.17,27.08,13,2,13,0.00
2013-10-16,78.4,64.0,49.1,33.9,5.3,-20.0,37,16,2,27.29,27.17,10,1,10,0.00
2013-10-17,79.2,62.5,47.1,24.0,-6.3,-20.0,28,9,2,27.29,27.11,8,1,9,0.00
2013-10-18,80.2,63.4,46.6,25.4,-4.8,-20.0,28,10,2,27.23,27.14,11,1,12,0.00
2013-10-19,84.6,65.8,47.8,26.4,-2.5,-20.0,30,11,2,27.26,27.14,11,1,11,0.00
2013-10-20,82.8,64.5,47.5,-7.0,-11.8,-20.0,8,5,2,27.20,27.08,12,1,12,0.00
2013-10-21,83.3,65.4,48.9,-7.0,-11.8,-20.0,8,5,2,27.23,27.14,10,1,11,0.00
2013-10-22,88.0,69.3,50.2,-7.3,-11.5,-20.0,8,4,2,27.26,27.14,14,2,14,0.00
2013-10-23,89.8,74.9,61.3,-8.1,-12.0,-20.0,5,3,2,27.17,27.08,15,2,15,0.00
2013-10-24,90.0,72.5,55.9,29.6,-4.7,-20.0,27,7,2,27.23,27.08,11,2,13,0.00
2013-10-25,84.6,68.8,53.8,27.3,-4.8,-20.0,28,8,2,27.29,27.20,10,1,11,0.00
2013-10-26,85.3,67.8,51.3,31.7,3.7,-20.0,34,13,2,27.32,27.20,10,0,10,0.00
2013-10-27,88.5,73.9,61.2,32.5,3.2,-20.0,25,10,2,27.23,27.02,13,3,13,0.00
2013-10-28,82.0,69.4,58.5,32.7,13.2,-20.0,30,17,2,27.14,27.05,17,4,17,0.00
2013-10-29,81.5,68.7,56.7,36.3,21.3,-18.5,41,22,2,27.17,27.05,22,4,22,0.00
2013-10-30,68.2,58.2,49.6,41.1,34.2,25.6,52,41,32,27.23,27.11,15,2,15,0.00
2013-10-31,72.5,57.5,42.4,37.2,17.2,-14.5,48,28,3,27.32,27.20,10,1,11,0.00
2013-11-1,77.2,59.4,41.9,27.5,5.1,-20.0,36,18,2,27.34,27.23,8,1,8,0.00
2013-11-2,84.9,69.3,52.3,49.4,-7.9,-20.0,60,7,2,27.26,27.08,17,3,17,0.01
2013-11-3,78.6,66.7,58.6,54.7,47.9,39.5,83,54,32,27.20,26.99,11,1,12,0.06
2013-11-4,79.3,66.1,54.0,51.2,45.0,40.6,63,48,31,27.05,26.93,14,2,15,0.00
2013-11-5,70.2,61.7,54.5,45.8,42.5,39.2,68,51,35,27.32,27.05,11,2,13,0.00
2013-11-6,75.2,59.4,44.4,40.1,15.2,-20.0,71,31,2,27.43,27.32,8,1,9,0.00
2013-11-7,79.9,64.0,47.3,25.9,-1.9,-20.0,26,10,2,27.40,27.26,23,3,23,0.00
2013-11-8,81.0,67.0,57.6,38.4,30.8,16.6,34,27,10,27.29,27.17,10,1,10,0.00
2013-11-9,80.4,65.2,52.0,42.0,34.8,28.5,42,33,22,27.32,27.23,8,0,9,0.00
2013-11-10,84.6,67.0,50.5,42.7,32.8,16.6,48,31,9,27.34,27.20,10,1,10,0.00
2013-11-11,86.4,67.8,51.4,46.2,34.9,17.2,45,32,8,27.29,27.20,9,0,10,0.00
2013-11-12,85.5,70.2,56.7,45.1,38.4,32.0,40,32,22,27.37,27.29,16,3,16,0.00
2013-11-13,78.6,67.3,62.2,46.3,39.9,37.5,43,37,31,27.37,27.20,19,5,19,0.00
2013-11-14,79.2,65.1,53.8,47.7,40.4,33.5,56,41,26,27.23,27.08,8,1,9,0.00
2013-11-15,75.0,65.7,54.9,49.4,43.0,31.5,54,44,36,27.08,26.87,17,4,18,0.00
2013-11-16,75.6,66.1,55.8,51.0,45.0,36.2,73,49,25,27.11,26.96,15,3,16,0.00
2013-11-17,75.4,63.3,52.7,46.8,43.9,40.7,69,50,35,27.26,27.11,9,1,10,0.00
2013-11-18,77.7,64.8,53.2,48.8,43.3,38.9,63,47,33,27.29,27.17,11,1,11,0.00
2013-11-19,77.2,62.4,48.7,45.9,39.3,35.5,63,44,23,27.23,27.05,11,1,11,0.00
2013-11-20,73.6,62.6,50.9,43.4,38.6,33.3,53,42,32,27.11,27.02,13,1,13,0.00
2013-11-21,72.5,64.7,54.9,52.5,42.2,35.9,70,45,34,27.17,27.08,11,1,11,0.00
2013-11-22,64.9,56.6,48.2,57.0,51.1,46.6,95,83,54,27.17,27.02,14,3,14,0.37
2013-11-23,53.1,49.6,47.7,50.1,47.2,44.1,97,92,80,27.26,27.14,13,3,13,1.32
2013-11-24,60.8,52.2,45.9,47.5,42.5,38.6,93,71,47,27.32,27.23,10,2,12,0.00
2013-11-25,59.4,48.9,39.9,42.0,39.1,36.1,86,70,46,27.37,27.29,8,1,9,0.00
2013-11-26,66.2,53.3,41.4,39.9,35.4,27.7,84,54,33,27.43,27.32,13,1,13,0.00
2013-11-27,50.5,49.6,48.7,28.0,27.5,26.9,44,42,41,27.34,27.32,5,0,5,0.00
2013-11-28,71.1,62.4,50.5,38.9,36.6,34.2,58,39,29,27.29,27.17,6,1,8,0.00
2013-11-29,72.5,58.2,46.4,45.5,40.2,35.2,72,53,34,27.37,27.26,10,1,10,0.00
2013-11-30,70.0,57.9,47.8,46.5,44.0,41.0,80,62,41,27.34,27.26,5,0,5,0.00
2013-12-1,69.6,55.6,49.8,48.8,45.9,0.0,83,72,40,27.40,27.32,6,0,6,0.00
2013-12-2,50.2,48.8,47.3,36.1,34.5,32.4,62,58,53,27.14,27.08,4,0,5,0.00
2013-12-4,67.6,56.5,46.4,46.5,41.4,37.1,88,59,34,27.11,26.96,13,3,15,0.06
2013-12-5,51.1,44.6,33.8,43.3,34.0,26.1,87,68,48,27.29,27.08,6,1,8,0.15
2013-12-6,52.5,42.0,33.4,31.5,27.1,23.7,80,57,37,27.34,27.23,6,0,6,0.00
2013-12-7,57.6,47.3,35.8,33.9,28.8,24.7,77,50,31,27.26,27.14,8,1,8,0.00
2013-12-8,58.8,50.8,41.9,39.3,33.9,21.0,67,52,43,27.29,27.17,8,2,10,0.00
2013-12-9,51.6,41.1,33.1,26.5,23.1,19.8,66,50,31,27.43,27.34,6,0,7,0.00
2013-12-10,60.6,46.6,38.7,27.2,23.5,10.2,63,44,17,27.32,27.26,0,0,4,0.00
2013-12-11,66.9,54.8,50.0,37.7,33.9,30.0,53,46,34,27.34,27.29,0,0,0,0.00
2013-12-12,45.9,44.0,40.3,33.9,33.0,31.4,71,65,62,27.29,27.29,0,0,0,0.00
2013-12-13,61.3,47.8,39.2,34.8,32.2,29.2,73,57,35,27.34,27.26,5,0,6,0.00
2013-12-14,63.5,48.3,36.7,34.2,30.2,24.2,74,52,28,27.43,27.34,4,0,5,0.00
2013-12-15,66.4,50.1,38.5,32.1,27.3,20.1,55,43,17,27.43,27.34,6,0,6,0.00
2013-12-16,46.6,44.5,42.8,27.6,25.9,25.0,49,48,46,27.37,27.34,6,1,6,0.00